Location: Beetenbrück
(52.8113°N, 9.5946°E)
Time: 22:11:11
(UTC+00:00)

Timation 2 Rocket - Pass Details

Date: 14 April 2026
Orbit: 905 x 1074 km, 70.0° (Epoch: 12 May)

Event Time Altitude Azimuth Distance (km) Brightness Sun altitude
Rises 20:06:05 0° 325° (NW) 3,620 8.6 -15.0°
Reaches altitude 10° 20:08:35 10° 323° (NW) 2,693 7.6 -15.2°
Maximum altitude 20:14:47 66° 243° (WSW) 1,072 4.3 -15.9°
Enters shadow 20:19:37 19° 165° (SSE) 2,221 5.4 -16.5°
